Regional Weather Roundup
Issued by NWS

Home | Current Version | Previous Version | Text Only | Print | Product List | Glossary Off
Versions: 1 2 3 4 5 6 7 8 9 10 11 12 13 14 15 16 17 18 19 20 21 22 23 24 25 26 27 28 29 30 31 32 33 34 35 36 37 38 39 40 41 42 43 44 45 46 47 48 49 50

000
ASUS45 KTFX 291904
RWRMT
MONTANA REGIONAL WEATHER ROUNDUP
NATIONAL WEATHER SERVICE GREAT FALLS MT
100 PM MDT SAT AUG 29 2015

NOTE: "FAIR" INDICATES FEW OR NO CLOUDS BELOW 12000 FEET WITH NO
SIGNIFICANT WEATHER AND/OR OBSTRUCTIONS TO VISIBILITY.

MTZ001>007-043-292000-
WEST OF THE DIVIDE

CITY           SKY/WX    TMP DP  RH WIND       PRES   REMARKS
KALISPELL      CLOUDY    71  46  40 CALM      29.76F SMOKE
MISSOULA       CLOUDY    66  49  54 SE5       29.82F HAZE
BUTTE          CLOUDY    80  38  22 S22G32    29.99F
MULLAN PASS    CLOUDY    68  37  32 S9G20     29.93S HAZE
DEER LODGE       N/A     79  43  27 S6        29.93F
EUREKA           N/A     73  45  35 CALM      29.71F
HAMILTON         N/A     70  48  46 N8        29.83F
LIBBY            N/A     70  45  40 NE3       29.72F
$$

MTZ008-052>055-292000-
SOUTHWEST MONTANA

CITY           SKY/WX    TMP DP  RH WIND       PRES   REMARKS
BOZEMAN        CLOUDY    80  56  43 NW6       29.93F HAZE
DILLON         CLOUDY    87  37  17 S24G32    29.95F
W YELLOWSTONE  CLOUDY    75  37  25 SW15G22   30.20S
$$

MTZ009-010-012-014-046-048-049-054-292000-
EAST SLOPES AND CENTRAL MONTANA

CITY           SKY/WX    TMP DP  RH WIND       PRES   REMARKS
CUT BANK       CLOUDY    77  42  28 S16       29.84R HAZE
GREAT FALLS    CLOUDY    86  39  19 S17G24    29.83F HAZE
MALMSTROM AFB  CLOUDY    87  40  19 SW13      29.82F
HELENA         CLOUDY    78  46  32 W6        29.86F SMOKE
$$

MTZ011-013-016-021-045-047-050-051-292000-
NORTH CENTRAL MONTANA

CITY           SKY/WX    TMP DP  RH WIND       PRES   REMARKS
HAVRE          MOSUNNY   93  39  15 SE13      29.77F
LEWISTOWN      CLOUDY    88  44  21 VRB7      29.93F
N BAR RANCH      N/A     82  39  21 S9G16     30.00F
CHINOOK          N/A     93  39  15 SE10      29.79F
FORT BENTON      N/A     93  41  16 E9        29.78F
$$

MTZ017>020-022>027-061-062-292000-
NORTHEAST MONTANA

CITY           SKY/WX    TMP DP  RH WIND       PRES   REMARKS
GLASGOW        CLOUDY    81  46  29 SE6       29.85F HAZE
JORDAN           N/A     93  38  14 E8        29.86F
SIDNEY         MOSUNNY   88  50  27 S10       29.86F
WOLF POINT     CLOUDY    83  48  29 CALM      29.85F HAZE
PLENTYWOOD       N/A     84  46  26 S3        29.86F
POPLAR           N/A     84  45  24 CALM      29.86F
$$

MTZ028>42-056>058-292000-
SOUTHCENTRAL AND SOUTHEAST MONTANA

CITY           SKY/WX    TMP DP  RH WIND       PRES   REMARKS
BAKER          SUNNY     95  44  17 SW8       29.94F HX  91
BILLINGS       CLOUDY    84  42  22 S6        29.95F
LIVINGSTON     PTSUNNY   85  40  20 E12       29.97F HAZE
MILES CITY     SUNNY     93  46  19 VRB7      29.89F HAZE
FORSYTH          N/A     93  45  18 NW5       29.88F
$$

REGIONAL REPORTS...DAKOTAS

CITY           SKY/WX    TMP DP  RH WIND       PRES   REMARKS
WILLISTON      MOSUNNY   90  48  23 VRB6      29.86F HAZE
MINOT          PTSUNNY   89  50  26 S14       29.85F HAZE
DICKINSON      SUNNY     96  43  16 S13       29.90F HAZE    HX  92
BISMARCK       CLOUDY    87  61  41 VRB3      29.91F HAZE
GRAND FORKS    CLOUDY    76  68  76 S8        29.90S
FARGO          MOSUNNY   81  66  60 S15       29.93F
BUFFALO SD       N/A     92  51  24 S9        29.91F
RAPID CITY     SUNNY     92  54  27 S14       30.01F HX  90
$$

REGIONAL REPORTS...WYOMING/IDAHO/WASHINGTON

CITY           SKY/WX    TMP DP  RH WIND       PRES   REMARKS
GILLETTE       SUNNY     94  37  13 SW17      30.03F
SHERIDAN       SUNNY     95  37  13 SE13      29.97F HX  90
BUFFALO WY     SUNNY     92  34  13 VRB3      30.06F
CODY           MOSUNNY   90  37  15 SE13      30.04F
YELLOWSTONE LA   N/A     67  36  31 SW8       30.34R
IDAHO FALLS    CLOUDY    86  45  23 E9        30.03F
SALMON         MOSUNNY   81  50  34 NW6       29.83F
BOISE          CLOUDY    87  40  19 SE7       29.86F
SPOKANE        DUST      73  43  33 W33G48    29.76R VSB 1
$$

REGIONAL REPORTS...ALBERTA

CITY           SKY/WX    TMP DP  RH WIND       PRES   REMARKS
$$

REGIONAL REPORTS...SASKATCHEWAN

CITY           SKY/WX    TMP DP  RH WIND       PRES   REMARKS
$$



USA.gov is the U.S. government's official web portal to all federal, state and local government web resources and services.